[[{"header":{"parameterUnit":"m.s-1","parameterCategory":1,"la1":30.2991,"la2":30.254,"lo1":-89.0895,"lo2":-89.0444,"dy":0.0017,"dx":0.0017,"nx":28,"ny":28,"refTime":"2024-05-31T03:00:00:Z","depth":0,"parameterNumber":2,"parameterNumberName":"U-component_of_WINDS"},"data":[0,0,0,0,0,0,0,0,0,0,0,0,0,0,0,0,0,0,0,0,0,0,0,0,0,0,0,0,0,0,0,0,0,0,0,0,0,0,0,0,0,0,0,0,0,0,0,0,0,0,0,0,0,0,0,0,0,0,-1.7194,-1.7194,0,-1.7263,-1.7264,-1.7265,-1.7295,-1.7295,-1.7295,-1.7295,-1.7369,-1.7371,-1.7373,0,0,0,0,0,0,0,0,0,0,0,0,0,-1.7089,-1.7091,-1.7194,-1.7194,-1.7195,-1.7263,-1.7264,-1.7265,-1.7295,-1.7295,-1.7295,-1.7295,-1.7368,-1.7371,-1.7373,0,0,0,0,0,0,0,0,0,0,0,0,0,-1.7145,-1.7092,-1.7193,-1.7218,-1.7221,-1.7263,-1.7264,-1.7266,-1.7295,-1.7295,-1.7295,-1.7295,-1.7368,-1.7371,-1.7374,-1.7396,0,0,-1.7383,-1.7385,0,0,0,0,0,0,0,0,-1.7141,-1.7148,-1.7214,-1.7217,-1.722,-1.727,-1.7255,-1.731,-1.7296,-1.7267,-1.7295,-1.7295,-1.7337,-1.7342,-1.7356,-1.74,-1.7403,-1.7383,-1.7385,-1.7387,-1.7388,0,0,0,0,0,0,0,-1.7138,-1.7146,-1.7221,-1.7215,-1.7219,-1.7227,-1.7235,-1.7265,-1.7302,-1.727,-1.7272,-1.728,-1.7338,-1.7353,-1.7358,-1.7404,-1.7383,-1.7386,-1.7388,-1.7389,-1.7471,-1.7472,0,0,0,0,0,0,-1.7129,-1.7142,-1.7219,-1.7223,-1.7179,-1.7229,-1.7238,-1.7255,-1.7302,-1.7309,-1.728,-1.7281,-1.7347,-1.7354,-1.736,-1.7391,-1.7387,-1.739,-1.7391,-1.7471,-1.7471,-1.7472,0,0,0,0,0,0,-1.7127,-1.7136,-1.7216,-1.7183,-1.7194,-1.7231,-1.725,-1.7256,-1.727,-1.731,-1.7317,-1.7288,-1.7348,-1.7356,-1.7387,-1.7394,-1.7391,-1.7394,-1.7471,-1.7471,-1.7472,-1.7451,0,0,0,0,0,0,-1.7124,-1.7135,-1.7143,-1.7183,-1.7196,-1.7241,-1.725,-1.7258,-1.7275,-1.7278,-1.7319,-1.7325,-1.7348,-1.7382,-1.739,-1.7398,-1.7396,-1.747,-1.7471,-1.7471,-1.7451,-1.745,-1.745,0,0,0,0,0,-1.712,-1.7135,-1.7143,-1.7152,-1.7207,-1.7241,-1.7249,-1.7274,-1.7276,-1.7285,-1.731,-1.7324,-1.7392,-1.7385,-1.7395,-1.7403,-1.747,-1.7471,-1.7471,-1.7451,-1.7451,-1.745,0,0,0,0,0,0,-1.7095,-1.714,-1.715,-1.7179,-1.7206,-1.7246,-1.7258,-1.7272,-1.73,-1.7301,-1.7331,-1.7341,-1.7369,-1.7389,-1.7382,-1.7428,-1.7432,-1.7435,-1.7414,-1.7413,-1.7413,-1.7407,-1.7399,0,0,0,0,0,-1.7093,-1.7116,-1.7155,-1.7176,-1.7189,-1.7221,-1.7237,-1.7254,-1.7284,-1.7296,-1.7323,-1.7352,-1.738,-1.7398,-1.7426,-1.7454,-1.7464,-1.7465,-1.7464,-1.7464,-1.7465,-1.7483,-1.7484,-1.7474,-1.7474,-1.7474,0,0,-1.7088,-1.7116,-1.7129,-1.7172,-1.7195,-1.7219,-1.7231,-1.7256,-1.7274,-1.73,-1.7331,-1.7352,-1.7387,-1.7417,-1.7431,-1.7434,-1.747,-1.7464,-1.7464,-1.7466,-1.7484,-1.7484,-1.7485,-1.7475,-1.7474,-1.7474,0,0,-1.7093,-1.7116,-1.7136,-1.7159,-1.7193,-1.7215,-1.7219,-1.7258,-1.7273,-1.7304,-1.7324,-1.7347,-1.7394,-1.7418,-1.7437,-1.7451,-1.7465,-1.7459,-1.7456,-1.7473,-1.7474,-1.7474,-1.748,-1.7481,-1.7461,-1.7461,-1.7461,0,-1.7083,-1.7119,-1.7145,-1.7169,-1.7187,-1.7211,-1.7232,-1.7254,-1.7296,-1.7308,-1.7311,-1.7371,-1.7396,-1.7432,-1.7436,-1.745,-1.7457,-1.7454,-1.7471,-1.7472,-1.7473,-1.7479,-1.7481,-1.746,-1.746,-1.746,-1.746,0,-1.7106,-1.7131,-1.7144,-1.7183,-1.7203,-1.7225,-1.7255,-1.7273,-1.7288,-1.731,-1.7342,-1.7373,-1.7407,-1.7417,-1.7433,-1.7456,-1.7457,-1.7465,-1.747,-1.7473,-1.7479,-1.7481,-1.7459,-1.7459,-1.7459,-1.7459,0,0,-1.7097,-1.715,-1.7154,-1.7172,-1.7212,-1.7232,-1.7256,-1.729,-1.7304,-1.7333,-1.7354,-1.7394,-1.7402,-1.7422,-1.7441,-1.7456,-1.7465,-1.7462,-1.7463,-1.7462,-1.7494,-1.7487,-1.7489,-1.7475,-1.7475,-1.7476,-1.7491,0,-1.7107,-1.715,-1.7174,-1.7207,-1.7231,-1.7254,-1.7275,-1.7302,-1.7323,-1.7348,-1.7371,-1.7399,-1.7407,-1.742,-1.7435,-1.7461,-1.7472,-1.746,-1.7496,-1.7497,-1.7487,-1.7492,-1.7486,-1.7498,-1.7493,-1.7494,-1.7494,0,-1.7125,-1.7151,-1.7187,-1.7224,-1.7235,-1.7254,-1.7286,-1.7309,-1.7341,-1.7355,-1.7378,-1.7397,-1.7424,-1.7427,-1.7466,-1.7457,-1.7473,-1.7488,-1.7489,-1.7494,-1.7496,-1.7497,-1.7503,-1.7505,-1.7498,-1.7497,-1.7497,0,-1.7114,-1.716,-1.7187,-1.7202,-1.7246,-1.7259,-1.7278,-1.731,-1.7328,-1.7357,-1.737,-1.7401,-1.7419,-1.7444,-1.7471,-1.747,-1.7508,-1.7512,-1.7521,-1.752,-1.7528,-1.7527,-1.7537,-1.7538,-1.7538,-1.7538,-1.7538,0,-1.7123,-1.7144,-1.7183,-1.72,-1.7224,-1.7252,-1.7276,-1.7297,-1.7325,-1.7347,-1.737,-1.739,-1.7424,-1.745,-1.7471,-1.7501,-1.7508,-1.7521,-1.7527,-1.752,-1.7518,-1.7531,-1.7531,-1.7538,-1.7538,-1.7538,-1.7538,0,-1.7116,-1.7143,-1.7174,-1.7213,-1.7224,-1.724,-1.7274,-1.7292,-1.7314,-1.7342,-1.735,-1.7385,-1.7416,-1.7445,-1.7487,-1.7501,-1.7531,-1.7538,-1.752,-1.7523,-1.753,-1.7529,-1.7549,-1.7553,-1.7551,-1.7551,-1.7551,0,-1.712,-1.7137,-1.7177,-1.7193,-1.7211,-1.7237,-1.7256,-1.7284,-1.7303,-1.7341,-1.7354,-1.7387,-1.7414,-1.7462,-1.7492,-1.7525,-1.7533,-1.7537,-1.7538,-1.753,-1.7533,-1.7532,-1.7534,-1.7537,-1.7537,-1.7536,-1.7536,0,-1.7124,-1.7137,-1.7162,-1.7193,-1.7214,-1.724,-1.7267,-1.7279,-1.7312,-1.7333,-1.7364,-1.7385,-1.7427,-1.7459,-1.7495,-1.7516,-1.7532,-1.7536,-1.754,-1.7533,-1.7522,-1.7528,-1.7518,-1.7535,-1.7536,-1.7536,-1.7536,-1.7536,-1.7124,-1.7139,-1.717,-1.7198,-1.7221,-1.7245,-1.7264,-1.7288,-1.7314,-1.735,-1.7366,-1.7397,-1.743,-1.7479,-1.75,-1.7526,-1.753,-1.7536,-1.7537,-1.7538,-1.7537,-1.7517,-1.7533,-1.7533,-1.7533,-1.7533,-1.7533,0,-1.7129,-1.715,-1.7176,-1.7211,-1.7234,-1.7246,-1.7276,-1.7294,-1.7321,-1.735,-1.7376,-1.7413,-1.7444,-1.7476,-1.751,-1.7525,-1.7533,-1.7533,-1.7532,-1.7537,-1.7531,-1.7525,-1.7525,-1.7525,-1.7525,-1.7525,-1.7525,-1.7525,-1.7135,-1.7162,-1.7178,-1.7218,-1.7239,-1.727,-1.7286,-1.7309,-1.7332,-1.7371,-1.7397,-1.7417,-1.7448,-1.7484,-1.7513,-1.7522,-1.7534,-1.7532,-1.7542,-1.7537,-1.7537,-1.7538,-1.7532,-1.7534,-1.7534,-1.7546,-1.7546,-1.7546]},{"header":{"parameterUnit":"m.s-1","parameterCategory":1,"la1":30.2991,"la2":30.254,"lo1":-89.0895,"lo2":-89.0444,"dy":0.0017,"dx":0.0017,"nx":28,"ny":28,"refTime":"2024-05-31T03:00:00:Z","depth":0,"parameterNumber":3,"parameterNumberName":"V-component_of_WINDS"},"data":[0,0,0,0,0,0,0,0,0,0,0,0,0,0,0,0,0,0,0,0,0,0,0,0,0,0,0,0,0,0,0,0,0,0,0,0,0,0,0,0,0,0,0,0,0,0,0,0,0,0,0,0,0,0,0,0,0,0,5.4886,5.4887,0,5.4948,5.4948,5.4949,5.4935,5.4934,5.4933,5.4931,5.4993,5.4996,5.4998,0,0,0,0,0,0,0,0,0,0,0,0,0,5.4755,5.4758,5.4886,5.4887,5.4888,5.4948,5.4948,5.4949,5.4935,5.4934,5.4932,5.4931,5.4992,5.4995,5.4999,0,0,0,0,0,0,0,0,0,0,0,0,0,5.4814,5.4758,5.4886,5.4888,5.4888,5.4947,5.4948,5.495,5.4935,5.4934,5.4932,5.493,5.4991,5.4995,5.4999,5.506,0,0,5.5012,5.5013,0,0,0,0,0,0,0,0,5.4811,5.4819,5.4887,5.4888,5.4889,5.4932,5.4925,5.4986,5.4936,5.4918,5.4931,5.4929,5.4974,5.4979,5.4995,5.5062,5.5065,5.5012,5.5014,5.5016,5.5017,0,0,0,0,0,0,0,5.4806,5.4816,5.491,5.4888,5.4889,5.4885,5.4892,5.4936,5.4955,5.4919,5.4918,5.4926,5.4974,5.4991,5.4996,5.5066,5.5012,5.5016,5.5018,5.502,5.5188,5.519,0,0,0,0,0,0,5.4802,5.4813,5.4908,5.4912,5.4845,5.4889,5.4896,5.492,5.4954,5.4958,5.4927,5.4925,5.4985,5.4991,5.4998,5.5072,5.5016,5.502,5.5022,5.5186,5.5188,5.5191,0,0,0,0,0,0,5.4799,5.481,5.4906,5.4862,5.4874,5.4893,5.492,5.4922,5.4938,5.496,5.4964,5.4941,5.4984,5.4992,5.5045,5.5074,5.5022,5.5026,5.5184,5.5187,5.5189,5.522,0,0,0,0,0,0,5.4795,5.4809,5.4833,5.4863,5.4877,5.4952,5.4921,5.4924,5.4946,5.4943,5.4974,5.4978,5.4983,5.5039,5.5049,5.5079,5.5029,5.5181,5.5185,5.5189,5.5216,5.5223,5.523,0,0,0,0,0,5.4791,5.4838,5.4834,5.4845,5.4906,5.4953,5.4961,5.4967,5.4948,5.4972,5.4986,5.4977,5.5069,5.5044,5.5056,5.5087,5.5179,5.5184,5.5188,5.5213,5.5222,5.523,0,0,0,0,0,0,5.481,5.4842,5.4838,5.4896,5.4922,5.4951,5.498,5.4976,5.5007,5.5003,5.5009,5.5016,5.5069,5.5083,5.5055,5.5148,5.5122,5.5129,5.5137,5.5145,5.5152,5.5147,5.5032,0,0,0,0,0,5.4821,5.4857,5.4883,5.4932,5.4946,5.4961,5.4982,5.4984,5.5011,5.5022,5.504,5.5066,5.5101,5.5124,5.5158,5.5219,5.5225,5.5246,5.5253,5.5258,5.5264,5.5298,5.5308,5.5205,5.5205,5.5205,0,0,5.4844,5.4866,5.4888,5.4937,5.4957,5.4995,5.497,5.501,5.5038,5.5028,5.5078,5.5093,5.5123,5.518,5.5206,5.5193,5.5294,5.5264,5.5268,5.5271,5.5304,5.5314,5.5322,5.5209,5.5208,5.5207,0,0,5.4905,5.4925,5.4969,5.4991,5.5022,5.5032,5.5043,5.5073,5.5082,5.5134,5.5127,5.516,5.522,5.5242,5.5261,5.5333,5.5326,5.5344,5.5378,5.5412,5.542,5.5427,5.5453,5.5463,5.5349,5.535,5.535,0,5.493,5.4986,5.4992,5.5034,5.5055,5.5049,5.5093,5.5114,5.5154,5.5169,5.5155,5.5232,5.5251,5.5314,5.5332,5.5347,5.536,5.534,5.5418,5.5426,5.5432,5.5457,5.5467,5.5352,5.5351,5.5351,5.5351,0,5.5015,5.5054,5.5085,5.5126,5.5152,5.5194,5.5207,5.5232,5.5233,5.5245,5.5298,5.5321,5.536,5.5375,5.5375,5.5439,5.543,5.5417,5.539,5.5444,5.5468,5.5477,5.5354,5.5354,5.5353,5.5353,0,0,5.5088,5.5133,5.5145,5.5164,5.5199,5.5229,5.5272,5.5311,5.5332,5.5361,5.5397,5.545,5.5438,5.546,5.5463,5.5493,5.5549,5.5476,5.5477,5.5489,5.5621,5.563,5.5641,5.5545,5.5547,5.5548,5.5619,0,5.5153,5.5229,5.5237,5.5304,5.5341,5.5336,5.5374,5.54,5.5412,5.5445,5.5459,5.5496,5.5478,5.5491,5.5521,5.5536,5.5576,5.5531,5.5579,5.558,5.5571,5.5654,5.5663,5.5729,5.5628,5.5629,5.5631,0,5.5238,5.5271,5.5342,5.5374,5.5389,5.5423,5.546,5.5491,5.5521,5.5528,5.5553,5.5553,5.5598,5.557,5.5632,5.5602,5.5622,5.5633,5.5636,5.564,5.5608,5.566,5.5749,5.5759,5.5645,5.5644,5.5643,0,5.5285,5.5347,5.5398,5.5414,5.5452,5.5476,5.5493,5.5521,5.5544,5.5576,5.5591,5.5628,5.5648,5.5677,5.5687,5.5666,5.5749,5.5722,5.5757,5.5756,5.5774,5.5772,5.5867,5.5787,5.5787,5.5787,5.5787,0,5.5356,5.5401,5.542,5.5451,5.5501,5.551,5.5559,5.5574,5.5599,5.5634,5.5632,5.5665,5.5676,5.5711,5.5719,5.577,5.5779,5.5786,5.5787,5.5786,5.5785,5.5799,5.5795,5.5789,5.5789,5.5788,5.5788,0,5.5417,5.5432,5.5487,5.5519,5.5528,5.5563,5.5591,5.5621,5.5634,5.5678,5.5689,5.5709,5.575,5.5763,5.5812,5.5818,5.5877,5.5875,5.5867,5.5867,5.5901,5.5898,5.6008,5.6023,5.5933,5.5934,5.5935,0,5.5461,5.5496,5.5532,5.5555,5.5573,5.561,5.5635,5.5645,5.567,5.5707,5.5734,5.5774,5.5807,5.5873,5.5892,5.593,5.5929,5.5965,5.5934,5.5932,5.593,5.5927,5.5931,5.597,5.5971,5.5972,5.5973,0,5.5539,5.5545,5.558,5.5618,5.5647,5.5677,5.5707,5.5726,5.574,5.5769,5.5811,5.5837,5.5888,5.5929,5.5968,5.5985,5.5982,5.5982,5.5992,5.5991,5.5985,5.5989,5.5883,5.598,5.5979,5.5978,5.5978,5.5978,5.5593,5.5624,5.5654,5.5693,5.5717,5.5745,5.5775,5.5792,5.5828,5.587,5.5874,5.592,5.595,5.6003,5.6022,5.6058,5.6048,5.6063,5.6066,5.607,5.6072,5.598,5.6066,5.6065,5.6065,5.6065,5.6065,0,5.5671,5.5691,5.5727,5.5768,5.58,5.5794,5.5827,5.5853,5.5894,5.5922,5.5955,5.6004,5.6044,5.6067,5.6107,5.6132,5.6131,5.6142,5.614,5.6144,5.6079,5.6067,5.6142,5.6142,5.6142,5.6142,5.6142,5.6142,5.5715,5.5767,5.5776,5.584,5.5859,5.5904,5.5923,5.5949,5.5972,5.6027,5.606,5.6075,5.6102,5.6144,5.6181,5.6187,5.6202,5.6214,5.6218,5.6157,5.6149,5.6141,5.613,5.6217,5.6217,5.6281,5.6281,5.6282]}]]